Regional Weather Roundup
Issued by NWS

Home | Current Version | Previous Version | Graphics & Text | Print | Product List | Glossary On
Versions: 1 2 3 4 5 6 7 8 9 10 11 12 13 14 15 16 17 18 19 20 21 22 23 24 25 26 27 28 29 30 31 32 33 34 35 36 37 38 39 40 41 42 43 44 45 46 47 48 49 50
000
ASUS43 KLOT 070000
RWRIL

ILLINOIS REGIONAL WEATHER ROUNDUP
NATIONAL WEATHER SERVICE CHICAGO/ROMEOVILLE IL
600 PM CST FRI MAR 06 2015

NOTE: "FAIR" INDICATES FEW OR NO CLOUDS BELOW 12,000 FEET WITH NO
SIGNIFICANT WEATHER AND/OR OBSTRUCTIONS TO VISIBILITY.

* THESE STATIONS ARE NOT UNDER NWS QUALITY CONTROL. THEY ALSO MAY NOT
  REPORT WEATHER SUCH AS PRECIPITATION OR FOG.

ILZ001-002-007-009-015-016-024-070100-
NORTHWEST ILLINOIS

CITY           SKY/WX    TMP DP  RH WIND       PRES   REMARKS
MOLINE         CLEAR     35  23  61 S7        30.15F WCI  29
6HR MIN TEMP:  28; 6HR MAX TEMP:  36;

STERLING*      CLEAR     30  23  74 W5        30.17S WCI  25
$$

ILZ003-004-008-010-011-017-018-070100-
NORTH CENTRAL ILLINOIS

CITY           SKY/WX    TMP DP  RH WIND       PRES   REMARKS
ROCKFORD       PTCLDY    28  19  69 S8        30.15F WCI  20
6HR MIN TEMP:  20; 6HR MAX TEMP:  30;

FREEPORT*      CLEAR     27  20  73 SW14      30.14S WCI  16
$$

ILZ005-006-012>014-019>023-070100-
NORTHEAST ILLINOIS

CITY           SKY/WX    TMP DP  RH WIND       PRES   REMARKS
CHICAGO-OHARE  PTCLDY    25  16  68 SW16G24   30.17F WCI  12
6HR MIN TEMP:  21; 6HR MAX TEMP:  27;

CHICAGO-MIDWAY PTCLDY    25  14  63 S16       30.20F WCI  12
6HR MIN TEMP:  23; 6HR MAX TEMP:  27;

AURORA         CLEAR     26  16  65 S10       30.19S WCI  16
6HR MIN TEMP:  20; 6HR MAX TEMP:  28;

LANSING*       CLEAR     22  15  72 SW15G23   30.23S WCI   9
WAUKEGAN       CLEAR     25  16  68 SW20      30.13S WCI  11
6HR MIN TEMP:  24; 6HR MAX TEMP:  29;

DUPAGE AIRPORT CLEAR     25  16  68 S14       30.17F WCI  13
6HR MIN TEMP:  20; 6HR MAX TEMP:  26;

WHEELING       CLEAR     26  15  63 SW13      30.18F WCI  15
6HR MIN TEMP:  24; 6HR MAX TEMP:  29;

NORTHERLY ISL    N/A     25  15  66 S13         N/A  WCI  14
$$

LMZ740>746-070100-
SOUTHERN LAKE MICHIGAN

STATION/POSITION SKY/WX   TEMP    WIND        PRES    VSBY  WAVE
                          AIR SEA DIR/SP/G                  HT/PER
                          (F)     (DEG/KT/KT) (MB)    (MI)  (FT/S)
WAUKEGAN HARBOR            27                   N/A
HARRISON CRIB              25     210/ 28/ 34   N/A
BURNHAM HARBOR             25     200/ 10/ 22   N/A
CALUMET HARBOR             25     200/ 15/ 22 1021.5F
MICHIGAN CITY              25     180/ 18/ 23   N/A
$$

ILZ025>027-034>036-040-047-049-050-058-095>099-070100-
WEST-CENTRAL ILLINOIS

CITY           SKY/WX    TMP DP  RH WIND       PRES   REMARKS
QUINCY         CLEAR     41  27  57 SW10      30.21S
MACOMB*        CLEAR     38  29  69 SW7       30.22S WCI  33
$$

ILZ028>032-037-038-041>044-048-051>054-059>061-070100-
CENTRAL ILLINOIS

CITY           SKY/WX    TMP DP  RH WIND       PRES   REMARKS
DECATUR        CLEAR     28  18  66 S12       30.27S WCI  18
PEORIA         CLEAR     32  22  66 S13       30.22F WCI  22
6HR MIN TEMP:  27; 6HR MAX TEMP:  34;

SPRINGFIELD    CLEAR     31  21  66 S12       30.26S WCI  22
6HR MIN TEMP:  26; 6HR MAX TEMP:  34;

TAYLORVILLE    NOT AVBL
$$

ILZ033-039-045-046-055>057-062-063-070100-
EAST-CENTRAL ILLINOIS

CITY           SKY/WX    TMP DP  RH WIND       PRES   REMARKS
CHAMPAIGN      CLEAR     22  14  71 S14       30.28S WCI   9
MATTOON        CLEAR     25  13  60 S12G21    30.29S WCI  14
$$

ILZ079-100>102-070100-
SOUTHWEST ILLINOIS

CITY           SKY/WX    TMP DP  RH WIND       PRES   REMARKS
CAHOKIA*       CLEAR     35  22  58 SE13      30.29R WCI  26
$$

ILZ064>066-069>071-074>076-080>082-084>086-088>090-092>094-070100-
SOUTH-CENTRAL ILLINOIS

CITY           SKY/WX    TMP DP  RH WIND       PRES   REMARKS
CARBONDALE     CLEAR     26  13  57 S13       30.41R WCI  15
6HR MIN TEMP:  26; 6HR MAX TEMP:  31;

MARION         CLEAR     28  14  54 S17       30.42S WCI  16
MT. VERNON     CLEAR     28  16  59 S14       30.37S WCI  17
$$

ILZ067-068-072-073-078-083-087-091-070100-
SOUTHEAST ILLINOIS

CITY           SKY/WX    TMP DP  RH WIND       PRES   REMARKS
LAWRENCEVILLE  CLEAR     26  11  52 S15       30.39R WCI  14
$$

ABBREVIATIONS USED IN REMARKS
   TC - TEMPERATURE IN CELSIUS
  WCI - WIND CHILL INDEX
   HX - HEAT INDEX
  VSB - VISIBILITY
$$



USA.gov is the U.S. government's official web portal to all federal, state and local government web resources and services.